sat.trackr.live / text

‹ back to catalog

AAC-AIS-SAT1

NORAD 55107 · 2023-001DC

PAYLOAD ACTIVE UNKNOWN

§ Identity

Operator
Country
UK
Launch date
2023-01-03
Launch site
AFETR
Launch vehicle
Mass (kg)
RCS (m²)

External: N2YO · Heavens-Above · Gunter

§ Orbital elements

Epoch: 2026-05-25T04:02:45.593664Z

Period
96.52 min
Inclination
97.9197°
Eccentricity
0.0009018
Mean motion
14.91875801 rev/d
Perigee alt
585.8 km
Apogee alt
598.4 km
Semi-major
6,970.2 km
B*
4.4672e-4
RAAN
221.8235°
Arg perigee
5.5721°
Mean anomaly
354.5596°
Rev number
17,485

§ Raw data

AAC-AIS-SAT11 55107U 23001DC  26145.16858326  .00004460  00000+0  44672-3 0  99902 55107  97.9197 221.8235 0009018   5.5721 354.5596 14.91875801174859

JSON: /api/v1/satellites/55107 · /tle

For live sub-satellite position, see the globe view (requires WebGL).

§ Visibility from observer

Set your observer location to see the next 7 days of passes ≥ 10°. The values pass through the URL so the page stays shareable.

No JS? Fill the form by hand. The geolocation button needs JavaScript.

§ Radio — SatNOGS DB

ModeDescriptionDownlinkUplink
FM VDES1 157.262 MHz
FM VDES2 161.863 MHz

2 transmitters · refreshed weekly from db.satnogs.org